User: anonymous   Login
Location: Brno
(49.2000°N, 16.6330°E)
Time: 00:35:30
(UTC+01:00)
Language:

Iridium 2 - Orbit

View from above orbital plane
View from above orbital plane
View from above satellite
View from above satellite

Ground track
Ground track

The orbit data is extracted from the following two-line orbital elements,

1 25527U 98066A   14303.43768608  .00011945  00000-0  74935-3 0  4191
2 25527 085.5371 236.9942 0011946 023.5725 114.5333 15.09141853872512
Epoch (UTC): 30 October 2014 10:30:16
Eccentricity: 0.0011946
inclination: 85.5371°
perigee height: 530 km
apogee height: 547 km
right ascension of ascending node: 236.9942°
argument of perigee: 23.5725°
revolutions per day: 15.09141853
mean anomaly at epoch: 114.5333°
orbit number at epoch: 87251

The dashed part of the orbit path shows where the satellite is in the earth's shadow,  

DLR